Torna al catalogo

KUIPER-00595

AttivoComunicazioniLEO
NORAD 69280·PAYLOAD·🇺🇸 United States

Lanciato May 29, 2026 da Vandenberg Space Force Base

Loading…

Prossimi Passaggi (prossime 24 ore)

TLE

AggiornatoSource: CelesTrak SupGP

Epoca: Sep 14, 2026, 23:23 UTC

1 69280C 26118P   26257.97437500 -.00056063  00000+0 -73413-2 0  2578
2 69280  51.8990 346.0923 0001297 153.5344 127.8721 14.79972593    15

Traccia KUIPER-00595 in tempo reale con AllMySat

Download on the App Store